Back to catalog

STARLINK-30394

AliveCommunicationsVLEO
NORAD 57810·PAYLOAD·🇺🇸 United States

Launched Sep 9, 2023 from Cape Canaveral Space Force Station

Loading…

Next Passes (next 24 hours)

TLE

FreshSource: CelesTrak SupGP

Epoch: Sep 15, 2026, 03:15 UTC

1 57810C 23138C   26258.13590278 -.00032746  00000+0 -11859-2 0  2583
2 57810  43.0021 244.2055 0001269 267.7705  58.4827 15.27598612    18

Track STARLINK-30394 in real time with AllMySat

Download on the App Store